Brest/Bretagne Airport

Airport
ICAO code: 
LFRB
IATA Code: 
BES
Summary
ICAO Region: 
EUR
Territory: 
Location: 
Guipavas, Bretagne
Serving: 
Brest
Elevation: 
325 ft
Coordinates: 
Aerial View: 
48° 26' 49.7" N, 4° 24' 56.645" W
Metar
Observation
LFRB 271800Z AUTO 01010KT CAVOK 15/10 Q1027 NOSIG
Station
Brest
Date/Time
2022-05-27 18:00:00
Wind direction
10°
Wind speed
10 kts
Lowest cloud amount
clouds and visibility OK
Temperature
15°C
Dew point
10°C
Humidity
72%
QNH
1027 hPa
Weather condition
n/a

Description

Brest Bretagne Airport, formerly known as Brest Guipavas Airport, is an airport serving the French city of Brest. It is located in the commune of Guipavas and 10.2km northeast of Brest, within the département of Finistère.

Climatology

Temperate Marine climate/Oceanic climate (Köppen climate classification Cfb). Moderately cool summer and comparatively warm winter with a temperature range of only 14°C. Prevailing south-westerly winds from the Atlantic Ocean.

Runways

Designator Length Width Surface Rops
07L/25R 700 18 ASP Yes/Yes
07R/25L 3100 45 ASP Yes/Yes
Airport map: 
Aerial View: 

Accidents and Serious Incidents at or in the vicinity of LFRB

SKYbrary Partners:

Safety knowledge contributed by: